Tracking 35331 objects as of 14-Sep-2026
HD Live streaming from Space Station
objects crossing your sky now

SITRO-AIS-56

Track SITRO-AIS-56 now!
10-day predictions
SITRO-AIS-56 is classified as:


NORAD ID: 59778
Int'l Code: 2024-092F
Launch date: May 16, 2024
Source: Commonwealth of Independent States (former USSR) (CIS)
Launch site: PLESETSK MISSILE AND SPACE COMPLEX (PKMTR)

Uplink (MHz):
Downlink (MHz): 401.215
Beacon (MHz):
Mode: 2k4 GMSK_USP
Call sign: SC2344
Status: Active

Your satellite tracking list
Your tracking list is empty




NASA's NSSDC Master Catalog

Two Line Element Set (TLE):
1 59778U 24092F   26257.34271406  .00017766  00000-0  43542-3 0  9990
2 59778  97.6688  34.7514 0006674 183.2188 176.9016 15.40779811129487
Source of the keplerian elements: AFSPC